[[{"header":{"parameterUnit":"m.s-1","parameterCategory":1,"la1":30.2992,"la2":30.254,"lo1":-89.0895,"lo2":-89.0443,"dy":0.0025,"dx":0.0025,"nx":19,"ny":19,"refTime":"2026-04-30T09:00:00:Z","depth":0,"parameterNumber":2,"parameterNumberName":"U-component_of_WINDS"},"data":[0,0,0,-4.9619,-4.9623,-4.9773,-4.9774,-4.9972,-4.9974,0,0,0,0,0,0,0,0,0,0,0,-4.9583,-4.9584,-4.9619,-4.9623,-4.9773,-4.9774,-4.9972,-4.9974,0,0,0,0,0,0,0,0,0,0,0,-4.9582,-4.9584,-4.9586,-4.9623,-4.9773,-4.9774,-4.9972,-4.9855,0,0,0,0,0,0,0,0,0,0,-4.9707,-4.9683,-4.9584,-4.9586,-4.9624,-4.9773,-4.9774,-4.9849,-4.9862,-4.9908,0,-4.9955,0,-4.9968,-4.9988,-4.9989,0,0,0,-4.9616,-4.9672,-4.9706,-4.9586,-4.9626,-4.9773,-4.9703,-4.9856,-4.9871,-4.9926,-4.9958,-4.9965,-4.9972,-4.999,-4.9991,-5.0291,-5.0292,0,0,-4.9607,-4.9613,-4.9695,-4.9716,-4.9698,-4.9699,-4.9708,-4.9865,-4.9899,-4.9959,-4.997,-4.9975,-4.9991,-4.9993,-5.0289,-5.0291,0,0,0,-4.9588,-4.9608,-4.9637,-4.9708,-4.9735,-4.9703,-4.9714,-4.9892,-4.9901,-4.9972,-4.9977,-4.9992,-4.9995,-5.0287,-5.029,-5.0384,0,0,0,-4.9583,-4.9597,-4.9634,-4.9639,-4.9732,-4.9816,-4.9738,-4.9891,-4.9908,-4.9976,-4.9992,-4.9997,-5.0285,-5.0288,-5.0377,-5.0427,0,0,0,-4.957,-4.9595,-4.962,-4.9639,-4.9705,-4.9814,-4.9832,-4.9894,-4.9912,-4.9989,-4.9998,-5.0284,-5.0288,-5.0371,-5.0417,-5.0509,0,0,0,-4.9557,-4.97,-4.9622,-4.9783,-4.9703,-4.9872,-4.9831,-4.9954,-5.0032,-4.9994,-5.0285,-5.0289,-5.0369,-5.0411,-5.0503,-5.0588,-5.0625,0,0,-4.9741,-4.9722,-4.9817,-4.9751,-4.9935,-4.9848,-5.0044,-5.0107,-5.0107,-5.0228,-5.0235,-5.0379,-5.0417,-5.0508,-5.0822,-5.0851,0,0,0,-4.9877,-4.9945,-4.9992,-5.0068,-5.0122,-5.0171,-5.0204,-5.0226,-5.033,-5.0172,-5.0436,-5.0458,-5.0511,-5.0552,-5.0576,-5.0621,-5.0308,-5.0308,-5.0307,-5.0146,-5.014,-5.0295,-5.0307,-5.038,-5.0413,-5.0471,-5.0506,-5.0477,-5.0539,-5.0576,-5.0768,-5.0816,-5.0834,-5.0881,-5.0619,-5.0619,-5.0619,-5.062,-5.0416,-5.0512,-5.0469,-5.0606,-5.0596,-5.0708,-5.0743,-5.0718,-5.0819,-5.074,-5.0786,-5.0701,-5.0866,-5.0907,-5.0627,-5.0626,-5.0625,-5.0624,-5.0623,-5.0594,-5.0638,-5.0665,-5.0774,-5.0856,-5.086,-5.096,-5.0947,-5.0934,-5.098,-5.1017,-5.1016,-5.1013,-5.0998,-5.0999,-5.1,-5.1,-5.1001,-5.1001,-5.0768,-5.0795,-5.0883,-5.0951,-5.0997,-5.1056,-5.1087,-5.1131,-5.1176,-5.1158,-5.1158,-5.1122,-5.0883,-5.0825,-5.1012,-5.101,-5.1009,-5.1008,-5.1007,-5.1047,-5.0982,-5.1118,-5.1165,-5.1242,-5.1324,-5.1305,-5.1395,-5.1428,-5.1477,-5.1431,-5.1256,-5.1235,-5.1216,-5.1167,-5.1432,-5.1432,-5.1432,-5.1432,-5.1198,-5.1187,-5.1322,-5.1397,-5.1469,-5.1465,-5.1615,-5.1639,-5.1653,-5.1673,-5.1631,-5.1565,-5.1545,-5.1536,-5.151,-5.1464,-5.1798,-5.1799,-5.1799,-5.137,-5.1364,-5.1497,-5.1513,-5.1572,-5.1621,-5.1762,-5.1846,-5.1847,-5.1814,-5.1688,-5.1672,-5.1564,-5.153,-5.1496,-5.1455,-5.1371,0,0]},{"header":{"parameterUnit":"m.s-1","parameterCategory":1,"la1":30.2992,"la2":30.254,"lo1":-89.0895,"lo2":-89.0443,"dy":0.0025,"dx":0.0025,"nx":19,"ny":19,"refTime":"2026-04-30T09:00:00:Z","depth":0,"parameterNumber":3,"parameterNumberName":"V-component_of_WINDS"},"data":[0,0,0,-0.8392,-0.8393,-0.8423,-0.8423,-0.8475,-0.8475,0,0,0,0,0,0,0,0,0,0,0,-0.839,-0.839,-0.8392,-0.8393,-0.8423,-0.8423,-0.8474,-0.8475,0,0,0,0,0,0,0,0,0,0,0,-0.8389,-0.839,-0.8391,-0.8393,-0.8423,-0.8423,-0.8474,-0.8447,0,0,0,0,0,0,0,0,0,0,-0.8415,-0.842,-0.839,-0.8391,-0.8393,-0.8423,-0.8423,-0.8445,-0.8449,-0.8465,0,-0.8482,0,-0.8479,-0.8479,-0.8479,0,0,0,-0.8388,-0.8417,-0.8419,-0.8391,-0.8393,-0.8423,-0.8408,-0.8447,-0.8451,-0.847,-0.8483,-0.8484,-0.848,-0.848,-0.848,-0.8592,-0.8592,0,0,-0.8386,-0.8399,-0.8417,-0.8422,-0.8417,-0.8407,-0.8409,-0.8449,-0.8464,-0.8483,-0.8485,-0.8481,-0.848,-0.8481,-0.8591,-0.8592,0,0,0,-0.8384,-0.8398,-0.8399,-0.842,-0.8425,-0.8408,-0.841,-0.8462,-0.8461,-0.8486,-0.8482,-0.848,-0.8481,-0.859,-0.8591,-0.8641,0,0,0,-0.8383,-0.8397,-0.8398,-0.8407,-0.8424,-0.8444,-0.8423,-0.8459,-0.8463,-0.8481,-0.848,-0.8482,-0.8589,-0.8591,-0.8638,-0.8663,0,0,0,-0.8385,-0.8397,-0.8404,-0.8407,-0.8421,-0.8443,-0.8444,-0.8459,-0.8461,-0.8479,-0.8482,-0.8589,-0.8591,-0.8635,-0.8658,-0.8696,0,0,0,-0.8391,-0.8449,-0.8405,-0.8467,-0.8421,-0.8473,-0.8444,-0.8482,-0.8504,-0.8481,-0.8589,-0.8591,-0.8634,-0.8655,-0.8693,-0.873,-0.8747,0,0,-0.8471,-0.8459,-0.8494,-0.8456,-0.852,-0.8467,-0.8538,-0.8547,-0.8537,-0.8574,-0.8577,-0.8639,-0.8658,-0.8695,-0.8835,-0.8848,0,0,0,-0.8524,-0.855,-0.8564,-0.8585,-0.8592,-0.8599,-0.8595,-0.8598,-0.8629,-0.8558,-0.8662,-0.8673,-0.8694,-0.8712,-0.8723,-0.8741,-0.86,-0.8599,-0.8599,-0.8657,-0.864,-0.8697,-0.8684,-0.8704,-0.8698,-0.8714,-0.8716,-0.8694,-0.8719,-0.873,-0.8817,-0.8838,-0.8846,-0.8865,-0.8748,-0.8748,-0.8749,-0.8749,-0.8772,-0.8806,-0.8773,-0.8817,-0.8799,-0.8836,-0.8832,-0.8815,-0.8846,-0.8807,-0.8825,-0.8785,-0.8861,-0.8876,-0.8752,-0.8752,-0.8751,-0.8751,-0.8751,-0.8858,-0.8871,-0.8872,-0.89,-0.8923,-0.8907,-0.8938,-0.8921,-0.8904,-0.8922,-0.8932,-0.8931,-0.8928,-0.8928,-0.8928,-0.8928,-0.8929,-0.8929,-0.8929,-0.8946,-0.8946,-0.8974,-0.8985,-0.8995,-0.9007,-0.9,-0.901,-0.9016,-0.9001,-0.9001,-0.8976,-0.8871,-0.8846,-0.8934,-0.8933,-0.8932,-0.8932,-0.8931,-0.907,-0.9039,-0.9083,-0.9093,-0.9104,-0.9127,-0.9103,-0.9125,-0.913,-0.9146,-0.9117,-0.9042,-0.9029,-0.902,-0.8998,-0.912,-0.912,-0.912,-0.912,-0.9143,-0.9133,-0.9174,-0.9191,-0.9206,-0.9188,-0.9239,-0.9233,-0.9224,-0.9226,-0.9205,-0.9175,-0.9166,-0.9158,-0.9146,-0.9126,-0.9278,-0.9278,-0.9278,-0.9218,-0.9209,-0.9255,-0.9244,-0.925,-0.9256,-0.9302,-0.9324,-0.9306,-0.9284,-0.9227,-0.9221,-0.9172,-0.9156,-0.9134,-0.9116,-0.9079,0,0]}]]